This is the latest recevied weather packets stored in our database for station/object KN6KS. If no packets are shown the sender has not sent any weather packets the latest 10 day(s).
| Time | Temp. | Humidity | Pressure | Rain* | Wind** | Luminosity | Snow |
|---|---|---|---|---|---|---|---|
| 1777724983 | 13.89° C | 44% | 1013.1 hPa | 0 mm | - | 0 W/m² | - |
| 1777724679 | 13.33° C | 45% | 1012.9 hPa | 0 mm | - | 0 W/m² | - |
| 1777724378 | 12.78° C | 46% | 1012.8 hPa | 0 mm | - | 0 W/m² | - |
| 1777724074 | 13.89° C | 46% | 1012.8 hPa | 0 mm | - | 0 W/m² | - |
| 1777723772 | 13.89° C | 44% | 1012.7 hPa | 0 mm | - | 0 W/m² | - |
| 1777723468 | 13.89° C | 44% | 1012.8 hPa | 0 mm | - | 0 W/m² | - |
| 1777723165 | 13.89° C | 43% | 1012.7 hPa | 0 mm | - | 0 W/m² | - |
| 1777722863 | 13.89° C | 43% | 1012.6 hPa | 0 mm | - | 0 W/m² | - |
| 1777722558 | 14.44° C | 42% | 1012.7 hPa | 0 mm | - | 0 W/m² | - |
| 1777722256 | 14.44° C | 41% | 1012.5 hPa | 0 mm | - | 0 W/m² | - |
| 1777721952 | 15° C | 40% | 1012.8 hPa | 0 mm | - | 0 W/m² | - |
| 1777721650 | 15° C | 39% | 1012.7 hPa | 0 mm | - | 0 W/m² | - |
| 1777721349 | 15° C | 39% | 1012.7 hPa | 0 mm | - | 0 W/m² | - |
| 1777721045 | 15° C | 40% | 1012.7 hPa | 0 mm | - | 0 W/m² | - |
| 1777720743 | 15° C | 40% | 1012.8 hPa | 0 mm | - | 0 W/m² | - |
| 1777720440 | 15° C | 40% | 1012.6 hPa | 0 mm | - | 0 W/m² | - |
| 1777720137 | 15° C | 41% | 1012.7 hPa | 0 mm | - | 0 W/m² | - |
| 1777719835 | 14.44° C | 42% | 1012.9 hPa | 0 mm | - | 0 W/m² | - |
| 1777719532 | 15° C | 44% | 1012.6 hPa | 0 mm | - | 0 W/m² | - |
| 1777719229 | 15° C | 39% | 1012.7 hPa | 0 mm | - | 0 W/m² | - |
| 1777718927 | 15° C | 41% | 1012.7 hPa | 0 mm | - | 0 W/m² | - |
| 1777718624 | 15.56° C | 40% | 1012.8 hPa | 0 mm | - | 0 W/m² | - |
| 1777718321 | 15° C | 40% | 1012.6 hPa | 0 mm | - | 0 W/m² | - |
| 1777718019 | 15° C | 41% | 1012.6 hPa | 0 mm | - | 0 W/m² | - |
| 1777717716 | 15° C | 39% | 1012.8 hPa | 0 mm | - | 0 W/m² | - |
* Rain latest hour (hover to see other rain measurements)
** Current wind speed in m/s (hover to see current wind gust speed)